Camden, AR

6:38 AM CDT on March 29, 2017 (GMT -0500)
Harrell

Weather History for KCDH - February, 2014

Change the Weather History Date:

Wednesday, February 19, 2014

  Actual Average Record
Temperature  
Mean Temperature 60 °F -  
Max Temperature 68 °F 58 °F 87 °F (1986)
Min Temperature 53 °F 34 °F 16 °F (1978)
Degree Days  
Heating Degree Days 4    
Growing Degree Days 10 (Base 50)    
Moisture  
Dew Point 57 °F    
Average Humidity 84    
Maximum Humidity 94    
Minimum Humidity 73    
Precipitation  
Precipitation 0.00 in - - ()
Sea Level Pressure  
Sea Level Pressure 29.92 in    
Wind  
Wind Speed - (North)    
Max Wind Speed -    
Max Gust Speed -    
Visibility 6 miles    
Events Fog , Rain    
Averages and records for this station are not official NWS values.
T = Trace of Precipitation, MM = Missing Value Source: NWS Daily Summary

Daily Weather History Graph

Daily Weather History Graph

Search for Another Location

Airport or City:

Trip Planner

Search our weather history database for the weather conditions in past years. The results will help you decide how hot, cold, wet, or windy it might be!

Date:

Astronomy

Feb. 19, 2014 Rise Set
Actual Time 6:50 AM CST 5:59 PM CST
Civil Twilight 6:25 AM CST 6:24 PM CST
Nautical Twilight 5:56 AM CST 6:53 PM CST
Astronomical Twilight 5:27 AM CST 7:22 PM CST
Moon 10:36 PM CST (2/19) 9:11 AM CST (2/19)
Length of Visible Light 11h 58m
Length of Day
11h 08m
Waning Gibbous, 79% of the Moon is Illuminated
Feb 19
Waning Gibbous
Feb 22
Last Quarter
Mar 1
New
Mar 8
First Quarter
Mar 16
Full

Hourly Weather History & Observations

Time (CST) Temp. Dew Point Humidity Pressure Visibility Wind Dir Wind Speed Gust Speed Precip Events Conditions
12:15 AM 57.2 °F 55.4 °F 94% 29.94 in 2.0 mi North - - N/A   Clear
12:35 AM 55.4 °F 53.6 °F 94% 29.94 in 1.5 mi North - - N/A   Clear
12:55 AM 57.2 °F 55.4 °F 94% 29.95 in 3.0 mi North - - N/A   Clear
1:15 AM 55.4 °F 53.6 °F 94% 29.95 in 1.0 mi North - - N/A   Clear
1:35 AM 55.4 °F 53.6 °F 94% 29.95 in 1.5 mi North - - N/A   Mostly Cloudy
1:55 AM 55.4 °F 53.6 °F 94% 29.96 in 1.0 mi North - - N/A   Mostly Cloudy
2:15 AM 57.2 °F 55.4 °F 94% 29.96 in 1.0 mi North - - N/A   Clear
2:35 AM 57.2 °F 55.4 °F 94% 29.96 in 0.8 mi North - - N/A   Mist
2:55 AM 57.2 °F 55.4 °F 94% 29.96 in 0.2 mi North - - N/A Fog Fog
3:15 AM 55.4 °F 53.6 °F 94% 29.96 in 0.2 mi North - - N/A Fog Fog
3:35 AM 53.6 °F 51.8 °F 94% 29.96 in 0.2 mi North - - N/A Fog Fog
3:55 AM 53.6 °F 51.8 °F 94% 29.96 in 0.2 mi North - - N/A Fog Fog
4:15 AM 55.4 °F 53.6 °F 94% 29.96 in 0.5 mi North - - N/A Fog Fog
4:35 AM 59.0 °F 57.2 °F 94% 29.97 in 2.5 mi North - - N/A   Overcast
4:55 AM 59.0 °F 57.2 °F 94% 29.97 in 4.0 mi North - - N/A   Overcast
5:15 AM 59.0 °F 57.2 °F 94% 29.97 in 4.0 mi North - - N/A   Overcast
5:35 AM 59.0 °F 57.2 °F 94% 29.97 in 4.0 mi North - - N/A   Overcast
5:55 AM 59.0 °F 57.2 °F 94% 29.97 in 5.0 mi North - - N/A   Overcast
6:15 AM 59.0 °F 57.2 °F 94% 29.97 in 4.0 mi North - - N/A   Overcast
6:35 AM 59.0 °F 57.2 °F 94% 29.98 in 5.0 mi North - - N/A   Overcast
6:55 AM 60.8 °F 59.0 °F 94% 29.98 in 5.0 mi North - - N/A   Overcast
7:15 AM 59.0 °F 57.2 °F 94% 29.99 in 0.2 mi North - - N/A Fog Fog
7:35 AM 59.0 °F 55.4 °F 88% 29.99 in 0.2 mi North - - N/A Fog Fog
7:55 AM 57.2 °F 55.4 °F 94% 29.99 in 0.2 mi North - - N/A Fog Fog
8:15 AM 59.0 °F 57.2 °F 94% 30.00 in 1.8 mi North - - N/A   Overcast
8:35 AM 62.6 °F 59.0 °F 88% 30.00 in 3.0 mi North - - N/A   Overcast
8:55 AM 62.6 °F 59.0 °F 88% 29.99 in 7.0 mi North - - N/A   Overcast
9:15 AM 64.4 °F 59.0 °F 83% 30.01 in 8.0 mi North - - N/A   Mostly Cloudy
9:35 AM 64.4 °F 59.0 °F 83% 30.01 in 7.0 mi North - - N/A   Overcast
9:55 AM 64.4 °F 59.0 °F 83% 30.01 in 9.0 mi North - - N/A   Overcast
10:15 AM 66.2 °F 59.0 °F 78% 30.00 in 9.0 mi North - - N/A   Overcast
10:35 AM 68.0 °F 59.0 °F 73% 30.00 in 9.0 mi North - - N/A   Overcast
10:55 AM 68.0 °F 59.0 °F 73% 30.00 in 9.0 mi North - - N/A   Overcast
11:15 AM 66.2 °F 59.0 °F 78% 30.00 in 8.0 mi North - - N/A   Overcast
11:35 AM 66.2 °F 59.0 °F 78% 29.99 in 8.0 mi North - - N/A   Overcast
11:55 AM 66.2 °F 59.0 °F 78% 29.98 in 7.0 mi North - - N/A   Overcast
12:15 PM 68.0 °F 59.0 °F 73% 29.97 in 8.0 mi North - - N/A   Overcast
12:35 PM 68.0 °F 59.0 °F 73% 29.96 in 7.0 mi North - - N/A   Overcast
12:55 PM 66.2 °F 59.0 °F 78% 29.95 in 7.0 mi North - - N/A Rain Light Rain
1:15 PM 66.2 °F 59.0 °F 78% 29.94 in 8.0 mi North - - N/A   Overcast
1:35 PM 68.0 °F 59.0 °F 73% 29.93 in 8.0 mi North - - N/A   Overcast
1:55 PM 68.0 °F 59.0 °F 73% 29.91 in 9.0 mi North - - N/A   Overcast
2:15 PM 68.0 °F 59.0 °F 73% 29.90 in 8.0 mi North - - N/A Rain Light Rain
2:35 PM 68.0 °F 59.0 °F 73% 29.90 in 8.0 mi North - - N/A   Overcast
2:55 PM 68.0 °F 59.0 °F 73% 29.89 in 7.0 mi North - - N/A   Overcast
3:15 PM 66.2 °F 59.0 °F 78% 29.89 in 5.0 mi North - - N/A   Haze
3:35 PM 68.0 °F 59.0 °F 73% 29.88 in 7.0 mi North - - N/A   Overcast
3:55 PM 66.2 °F 59.0 °F 78% 29.87 in 7.0 mi North - - N/A   Overcast
4:15 PM 66.2 °F 59.0 °F 78% 29.88 in 7.0 mi North - - N/A   Overcast
4:35 PM 68.0 °F 59.0 °F 73% 29.87 in 8.0 mi North - - N/A   Overcast
4:55 PM 68.0 °F 59.0 °F 73% 29.86 in 8.0 mi North - - N/A   Mostly Cloudy
5:15 PM 68.0 °F 59.0 °F 73% 29.86 in 8.0 mi North - - N/A   Scattered Clouds
5:35 PM 66.2 °F 59.0 °F 78% 29.85 in 8.0 mi North - - N/A   Partly Cloudy
5:55 PM 66.2 °F 59.0 °F 78% 29.84 in 8.0 mi North - - N/A   Clear
6:15 PM 64.4 °F 59.0 °F 83% 29.85 in 9.0 mi North - - N/A   Clear
6:35 PM 64.4 °F 59.0 °F 83% 29.84 in 8.0 mi North - - N/A   Clear
6:55 PM 62.6 °F 59.0 °F 88% 29.83 in 8.0 mi North - - N/A   Clear
7:15 PM 62.6 °F 59.0 °F 88% 29.82 in 7.0 mi North - - N/A   Clear
7:35 PM 62.6 °F 59.0 °F 88% 29.82 in 7.0 mi North - - N/A   Clear
7:55 PM 62.6 °F 57.2 °F 82% 29.81 in 7.0 mi North - - N/A   Clear
8:15 PM 62.6 °F 57.2 °F 82% 29.81 in 7.0 mi North - - N/A   Clear
8:35 PM 62.6 °F 57.2 °F 82% 29.81 in 7.0 mi North - - N/A   Clear
8:55 PM 62.6 °F 57.2 °F 82% 29.81 in 7.0 mi North - - N/A   Clear
9:15 PM 60.8 °F 57.2 °F 88% 29.81 in 7.0 mi North - - N/A   Clear
9:35 PM 60.8 °F 57.2 °F 88% 29.80 in 7.0 mi North - - N/A   Clear
9:55 PM 62.6 °F 57.2 °F 82% 29.80 in 7.0 mi North - - N/A   Clear
10:35 PM 60.8 °F 57.2 °F 88% 29.79 in 7.0 mi North - - N/A   Clear
10:55 PM 62.6 °F 57.2 °F 82% 29.78 in 8.0 mi North - - N/A   Clear
11:15 PM 62.6 °F 57.2 °F 82% 29.78 in 9.0 mi North - - N/A   Clear
11:35 PM 64.4 °F 57.2 °F 77% 29.77 in 7.0 mi North - - N/A   Clear
11:55 PM 64.4 °F 57.2 °F 77% 29.77 in 10.0 mi North - - N/A   Clear